Port Heiden, AK

3:09 PM AKDT on October 17, 2017 (GMT -0800)
Port Heiden

Weather History for PAPH - June, 2013

Change the Weather History Date:

Thursday, June 27, 2013

  Actual Average Record
Temperature  
Mean Temperature 44 °F -  
Max Temperature 48 °F 53 °F 64 °F (2005)
Min Temperature 41 °F 43 °F 35 °F (2012)
Degree Days  
Heating Degree Days 20    
Moisture  
Dew Point 38 °F    
Average Humidity 79    
Maximum Humidity 87    
Minimum Humidity 69    
Precipitation  
Precipitation 0.00 in - - ()
Sea Level Pressure  
Sea Level Pressure 30.12 in    
Wind  
Wind Speed 11 mph (WSW)    
Max Wind Speed 15 mph    
Max Gust Speed 18 mph    
Visibility 7 miles    
Events      
Averages and records for this station are not official NWS values.
T = Trace of Precipitation, MM = Missing Value Source: NWS Daily Summary

Daily Weather History Graph

Daily Weather History Graph

Search for Another Location

Airport or City:

Trip Planner

Search our weather history database for the weather conditions in past years. The results will help you decide how hot, cold, wet, or windy it might be!

Date:

Astronomy

Jun. 27, 2013 Rise Set
Actual Time 5:42 AM AKDT 11:32 PM AKDT
Civil Twilight 4:35 AM AKDT 12:39 AM AKDT
Nautical Twilight 3:10 AM AKDT 2:05 AM AKDT
Astronomical Twilight Sun does not rise Sun does not rise
Moon 12:57 AM AKDT (6/27) 12:07 PM AKDT (6/27)
Length of Visible Light 20h 04m
Length of Day
17h 49m
Waning Gibbous, 75% of the Moon is Illuminated
Jun 27
Waning Gibbous
Jun 29
Last Quarter
Jul 7
New
Jul 15
First Quarter
Jul 22
Full

Hourly Weather History & Observations

Time (AKDT) Temp. Windchill Dew Point Humidity Pressure Visibility Wind Dir Wind Speed Gust Speed Precip Events Conditions
12:16 AM 41.0 °F 33.5 °F 35.6 °F 81% 30.08 in 4.0 mi West 13.8 mph - N/A   Overcast
12:36 AM 41.0 °F 33.9 °F 35.6 °F 81% 30.08 in 5.0 mi WSW 12.7 mph - N/A   Overcast
12:56 AM 41.0 °F 33.9 °F 35.6 °F 81% 30.08 in 5.0 mi WSW 12.7 mph - N/A   Overcast
1:16 AM 41.0 °F 35.2 °F 35.6 °F 81% 30.09 in 5.0 mi WSW 9.2 mph - N/A   Overcast
1:36 AM 41.0 °F 33.9 °F 35.6 °F 81% 30.08 in 5.0 mi WSW 12.7 mph - N/A   Overcast
1:56 AM 41.0 °F 34.3 °F 35.6 °F 81% 30.09 in 7.0 mi WSW 11.5 mph - N/A   Overcast
2:16 AM 41.0 °F 33.9 °F 35.6 °F 81% 30.09 in 7.0 mi WSW 12.7 mph - N/A   Overcast
2:36 AM 41.0 °F 34.3 °F 35.6 °F 81% 30.09 in 9.0 mi WSW 11.5 mph - N/A   Overcast
2:56 AM 41.0 °F 33.9 °F 37.4 °F 87% 30.09 in 8.0 mi WSW 12.7 mph - N/A   Overcast
3:16 AM 41.0 °F 34.3 °F 35.6 °F 81% 30.09 in 7.0 mi WSW 11.5 mph - N/A   Overcast
3:36 AM 41.0 °F 34.3 °F 35.6 °F 81% 30.10 in 10.0 mi WSW 11.5 mph - N/A   Overcast
3:56 AM 41.0 °F 33.5 °F 35.6 °F 81% 30.10 in 8.0 mi WSW 13.8 mph - N/A   Overcast
4:16 AM 41.0 °F 34.3 °F 35.6 °F 81% 30.09 in 4.0 mi WSW 11.5 mph 17.3 mph N/A   Overcast
4:36 AM 41.0 °F 33.1 °F 35.6 °F 81% 30.10 in 5.0 mi WSW 15.0 mph - N/A   Overcast
4:56 AM 41.0 °F 33.9 °F 35.6 °F 81% 30.09 in 10.0 mi SW 12.7 mph - N/A   Overcast
5:16 AM 41.0 °F 34.3 °F 35.6 °F 81% 30.10 in 10.0 mi SW 11.5 mph - N/A   Overcast
5:36 AM 41.0 °F 34.7 °F 35.6 °F 81% 30.10 in 10.0 mi WSW 10.4 mph - N/A   Overcast
5:56 AM 42.8 °F 36.2 °F 37.4 °F 81% 30.10 in 5.0 mi SW 12.7 mph - N/A   Overcast
6:16 AM 42.8 °F 36.6 °F 37.4 °F 81% 30.10 in 5.0 mi WSW 11.5 mph - N/A   Overcast
6:36 AM 42.8 °F 36.6 °F 37.4 °F 81% 30.10 in 3.0 mi SW 11.5 mph - N/A   Overcast
6:56 AM 42.8 °F 37.0 °F 37.4 °F 81% 30.10 in 5.0 mi WSW 10.4 mph - N/A   Overcast
7:16 AM 42.8 °F 37.0 °F 35.6 °F 76% 30.10 in 9.0 mi SW 10.4 mph - N/A   Overcast
7:36 AM 42.8 °F 35.8 °F 37.4 °F 81% 30.10 in 4.0 mi SW 13.8 mph - N/A   Overcast
7:56 AM 42.8 °F 36.2 °F 37.4 °F 81% 30.10 in 5.0 mi SW 12.7 mph - N/A   Overcast
8:16 AM 42.8 °F 35.4 °F 37.4 °F 81% 30.10 in 3.0 mi WSW 15.0 mph - N/A   Overcast
8:36 AM 42.8 °F 35.8 °F 37.4 °F 81% 30.09 in 1.8 mi WSW 13.8 mph - N/A   Overcast
8:56 AM 44.6 °F 38.4 °F 37.4 °F 76% 30.10 in 1.2 mi WSW 12.7 mph 18.4 mph N/A   Overcast
9:16 AM 42.8 °F 35.8 °F 37.4 °F 81% 30.10 in 1.0 mi WSW 13.8 mph - N/A   Overcast
9:36 AM 44.6 °F 37.8 °F 39.2 °F 81% 30.10 in 0.8 mi WSW 15.0 mph - N/A   Overcast
9:56 AM 42.8 °F 36.2 °F 37.4 °F 81% 30.11 in 0.8 mi SW 12.7 mph - N/A   Overcast
10:16 AM 44.6 °F 39.2 °F 39.2 °F 81% 30.11 in 1.5 mi SW 10.4 mph - N/A   Overcast
10:36 AM 44.6 °F 38.4 °F 39.2 °F 81% 30.12 in 1.0 mi WSW 12.7 mph - N/A   Overcast
10:56 AM 44.6 °F 39.2 °F 39.2 °F 81% 30.12 in 1.2 mi WSW 10.4 mph - N/A   Overcast
11:16 AM 44.6 °F 38.8 °F 39.2 °F 81% 30.13 in 1.2 mi WSW 11.5 mph - N/A   Overcast
11:36 AM 44.6 °F 39.2 °F 39.2 °F 81% 30.13 in 1.0 mi WSW 10.4 mph - N/A   Overcast
11:56 AM 44.6 °F 39.2 °F 39.2 °F 81% 30.13 in 1.5 mi WSW 10.4 mph - N/A   Overcast
12:16 PM 44.6 °F 39.2 °F 37.4 °F 76% 30.13 in 1.0 mi WSW 10.4 mph - N/A   Overcast
12:36 PM 44.6 °F 39.2 °F 39.2 °F 81% 30.13 in 0.8 mi WSW 10.4 mph - N/A   Overcast
12:56 PM 44.6 °F 39.7 °F 39.2 °F 81% 30.13 in 1.2 mi SW 9.2 mph - N/A   Overcast
1:16 PM 44.6 °F 38.8 °F 39.2 °F 81% 30.13 in 2.5 mi SW 11.5 mph - N/A   Overcast
1:36 PM 44.6 °F 39.2 °F 39.2 °F 81% 30.13 in 3.0 mi SW 10.4 mph - N/A   Overcast
1:56 PM 44.6 °F 38.8 °F 39.2 °F 81% 30.13 in 2.5 mi WSW 11.5 mph - N/A   Overcast
2:16 PM 44.6 °F 38.4 °F 39.2 °F 81% 30.12 in 3.0 mi WSW 12.7 mph - N/A   Overcast
2:36 PM 44.6 °F 38.8 °F 39.2 °F 81% 30.13 in 10.0 mi WSW 11.5 mph - N/A   Overcast
2:56 PM 44.6 °F 38.8 °F 39.2 °F 81% 30.13 in 10.0 mi WSW 11.5 mph - N/A   Overcast
3:16 PM 44.6 °F 38.8 °F 39.2 °F 81% 30.13 in 10.0 mi WSW 11.5 mph - N/A   Overcast
3:36 PM 46.4 °F 41.5 °F 39.2 °F 76% 30.13 in 8.0 mi SW 10.4 mph - N/A   Overcast
3:56 PM 46.4 °F 41.5 °F 39.2 °F 76% 30.12 in 10.0 mi WSW 10.4 mph - N/A   Overcast
4:16 PM 46.4 °F 41.9 °F 39.2 °F 76% 30.12 in 10.0 mi WSW 9.2 mph - N/A   Overcast
4:36 PM 46.4 °F 42.4 °F 37.4 °F 71% 30.13 in 10.0 mi West 8.1 mph - N/A   Overcast
4:56 PM 46.4 °F 42.4 °F 39.2 °F 76% 30.13 in 10.0 mi West 8.1 mph - N/A   Overcast
5:16 PM 46.4 °F 41.5 °F 39.2 °F 76% 30.13 in 10.0 mi West 10.4 mph - N/A   Overcast
5:36 PM 46.4 °F 42.4 °F 37.4 °F 71% 30.13 in 10.0 mi West 8.1 mph - N/A   Overcast
5:56 PM 46.4 °F 42.4 °F 39.2 °F 76% 30.14 in 10.0 mi West 8.1 mph - N/A   Overcast
6:16 PM 46.4 °F 43.5 °F 39.2 °F 76% 30.14 in 10.0 mi WSW 5.8 mph - N/A   Overcast
6:36 PM 46.4 °F 42.9 °F 39.2 °F 76% 30.14 in 10.0 mi West 6.9 mph - N/A   Overcast
6:56 PM 46.4 °F 43.5 °F 39.2 °F 76% 30.14 in 10.0 mi West 5.8 mph - N/A   Overcast
7:16 PM 46.4 °F 44.3 °F 39.2 °F 76% 30.13 in 10.0 mi West 4.6 mph - N/A   Overcast
7:36 PM 46.4 °F 45.2 °F 39.2 °F 76% 30.13 in 10.0 mi WSW 3.5 mph - N/A   Overcast
7:56 PM 46.4 °F 44.3 °F 39.2 °F 76% 30.13 in 10.0 mi WSW 4.6 mph - N/A   Overcast
8:16 PM 46.4 °F 45.2 °F 39.2 °F 76% 30.13 in 10.0 mi West 3.5 mph - N/A   Overcast
8:36 PM 46.4 °F - 39.2 °F 76% 30.13 in 10.0 mi Calm Calm - N/A   Overcast
8:56 PM 46.4 °F 45.2 °F 39.2 °F 76% 30.13 in 10.0 mi WSW 3.5 mph - N/A   Overcast
9:16 PM 46.4 °F 44.3 °F 39.2 °F 76% 30.13 in 10.0 mi WSW 4.6 mph - N/A   Overcast
9:36 PM 46.4 °F 44.3 °F 39.2 °F 76% 30.13 in 10.0 mi WSW 4.6 mph - N/A   Overcast
9:56 PM 46.4 °F 45.2 °F 39.2 °F 76% 30.13 in 10.0 mi WSW 3.5 mph - N/A   Overcast
10:36 PM 46.4 °F 43.5 °F 39.2 °F 76% 30.13 in 10.0 mi West 5.8 mph - N/A   Overcast
10:56 PM 44.6 °F 42.2 °F 39.2 °F 81% 30.14 in 10.0 mi West 4.6 mph - N/A   Overcast
11:16 PM 44.6 °F 43.1 °F 39.2 °F 81% 30.14 in 10.0 mi West 3.5 mph - N/A   Overcast
11:36 PM 44.6 °F 42.2 °F 39.2 °F 81% 30.14 in 10.0 mi WSW 4.6 mph - N/A   Overcast
11:56 PM 44.6 °F 43.1 °F 39.2 °F 81% 30.14 in 10.0 mi WSW 3.5 mph - N/A   Overcast